Weather in Gaozhou

China     21°54′55″N   110°51′04″E
temp.,
°C
wind,
m/s
gust,
m/s
humid.,
%
clouds,
%
prec.,
mm/h
press.,
hPa
HPBL,
m
14 april, wed
wed1423:00+24s37853 0.0 1013266
02:00+23sse239020 0.0 1012111
05:00+22se119192 0.0 101225
08:00+24se23826 0.0 1014349
11:00+29sse445828 0.0 10141252
14:00+30s555493 0.1 10101425
17:00+29sse6658100 0.0 10091077
20:00+25sse596928 0.0 1010363
15 april, thu
thu1523:00+25se3972100 0.0 1012352
02:00+24se267647 0.0 1011211
05:00+23se228049 0.0 101144
08:00+25ese3672100 0.0 1012434
11:00+29sse575986 0.1 10131442
14:00+30sse6755100 0.8 10101688
17:00+28sse6761100 0.1 10091186
20:00+25se487459 0.1 1011369
16 april, fri
fri1623:00+25se3678100 0.0 1013324
02:00+24se248684 0.0 1012174
05:00+23se238882 0.0 1012136
08:00+24sse3682100 1.9 1013315
11:00+28se466699 6.4 10141049
14:00+29se556399 10.9 10121267
17:00+28se456777 4.4 1012978
20:00+24ese2483100 7.3 1014109
17 april, sat
sat1723:00+24n248796 3.4 1016122
02:00+24nne2386100 5.4 1015102
05:00+23nne2390100 0.0 1014134
08:00+23n2286100 0.2 1017195
11:00+27nnw117255 0.6 1017775
14:00+27wnw3272100 7.6 1014686
17:00+24wnw2384100 7.5 1014127
20:00+23wnw0191100 12.7 101692
18 april, sun
sun1823:00+22n0196100 10.0 1017101
02:00+22ene1197100 24.4 1016105
05:00+22ese1194100 5.4 1014111
08:00+22ese1294100 12.6 1016141
11:00+23ese2588100 1.1 1016513
14:00+23ese3481100 1.2 1014612
17:00+21ne2483100 0.4 1013220
20:00+21ene248099 0.4 1014129